#timestamp,LO_Frequency,Hit,StdDev 
1665637215.5,286047002.5,N
1665637235.4,286047000.6,N
1665637255.2,286047000.9,N
1665637275.1,286046998.9,N
1665637276.0,286046998.9,N
1665637295.8,286046996.5,N
1665637315.6,286047000.5,N
1665637335.5,286046997.0,N
1665637355.3,286046998.5,N
1665637375.1,286046998.4,N
1665637395.9,286046998.3,N
1665637415.7,286046998.7,N
1665637435.6,286046998.7,N
1665637455.4,286047000.5,N
1665637475.2,286047001.0,N
1665637495.1,286046998.4,N
1665637496.0,286046998.4,N
1665637515.8,286046998.5,N
1665637535.6,286046998.7,N
1665637555.5,286047001.2,N
1665637575.3,286047002.4,N
1665637595.2,286046999.8,N
1665637615.9,286047002.1,N
1665637635.7,286047001.9,N
1665637655.6,286047000.2,N
1665637675.4,286047004.2,N
1665637695.2,286047003.7,N
1665637715.1,286047003.1,N
1665637716.0,286047003.1,N
1665637735.8,286047003.6,N
1665637755.7,286047004.4,N
1665637775.5,286047003.9,N
1665637795.3,286047004.1,N
1665637815.2,286046999.7,N
1665637835.0,286047002.2,N
1665637835.9,286047002.2,N
1665637855.7,286047002.8,N
1665637875.6,286047001.0,N
1665637895.4,286047000.1,N
1665637915.3,286047000.6,N
1665637935.1,286047001.0,N
1665637936.0,286047001.0,N
1665637955.8,286046999.9,N
1665637975.7,286046999.8,N
1665637995.5,286047004.3,N
1665638015.3,286047002.1,N
1665638035.2,286047001.4,N
1665638055.0,286047001.0,N
1665638055.9,286047001.0,N
1665638075.8,286046998.5,N
1665638095.6,286046999.6,N
1665638115.4,286046999.3,N
1665638135.3,286046999.0,N
1665638155.1,286046996.9,N
1665638175.8,286046999.5,N
1665638195.7,286046995.8,N
1665638215.5,286046996.1,N
1665638235.4,286046997.6,N
1665638255.2,286046997.3,N
1665638275.0,286046998.3,N
1665638275.9,286046998.3,N
1665638295.8,286046999.5,N
1665638315.6,286046998.6,N
1665638335.4,286047000.3,N
1665638355.3,286047002.4,N
1665638375.1,286047004.3,N
1665638395.9,286047002.8,N
1665638415.7,286046998.7,N
1665638435.5,286047002.8,N
1665638455.4,286047000.3,N
1665638475.2,286047000.0,N
1665638495.0,286046998.6,N
1665638495.9,286046998.6,N
1665638515.8,286047000.5,N
1665638535.6,286047002.7,N
1665638555.5,286047000.4,N
1665638575.3,286047000.9,N
1665638595.1,286047000.5,N
1665638615.9,286046999.4,N
1665638635.7,286046999.1,N
1665638655.5,286047000.7,N
1665638675.4,286047000.1,N
1665638695.2,286047002.2,N
1665638715.1,286046999.9,N
1665638716.0,286046999.9,N
1665638735.8,286046998.7,N
1665638755.6,286046997.0,N
1665638775.5,286046993.4,Y
1665638795.3,286046998.0,P
1665638815.2,286046999.2,N
1665638835.9,286047000.5,N
1665638855.7,286047001.0,N
1665638875.6,286047000.2,N
1665638895.4,286046998.6,N
1665638915.2,286046997.1,N
1665638935.1,286046999.1,N
1665638936.0,286046999.1,N
1665638955.8,286046998.7,N
1665638975.7,286046999.8,N
1665638995.5,286046996.5,Y
1665639015.3,286046995.0,P
1665639035.2,286046997.4,N
1665639055.0,286046997.1,N
1665639055.9,286046997.1,N
1665639075.7,286046993.6,Y
1665639095.6,286046997.1,P
1665639115.4,286046998.5,P
1665639135.3,286047000.6,N
1665639155.1,286046997.5,N
1665639156.0,286046997.5,N
1665639175.8,286046996.9,N
1665639195.7,286046999.0,N
1665639215.5,286046999.5,N
1665639235.3,286046998.4,N
1665639255.2,286047004.1,Y
1665639275.0,286047007.3,P
1665639275.9,286047007.3,N
1665639295.8,286047006.0,N
1665639315.6,286047003.4,N
1665639335.4,286047001.5,N
1665639355.3,286047000.3,N
1665639375.1,286047000.2,N
1665639395.9,286047001.7,N
1665639415.7,286047002.0,N
1665639435.5,286047003.7,N
1665639455.4,286047003.3,N
1665639475.2,286047003.7,N
1665639495.0,286047005.3,N
1665639495.9,286047005.3,N
1665639515.8,286047003.5,N
1665639535.6,286047004.1,N
1665639555.5,286047003.7,N
1665639575.3,286047004.6,N
1665639595.1,286047003.0,N
1665639615.9,286047005.1,N
1665639635.7,286047003.1,N
1665639655.5,286047000.5,N
1665639675.4,286047002.5,N
1665639695.2,286047002.9,N
1665639715.1,286047003.2,N
1665639716.0,286047003.2,N
1665639735.8,286047002.9,N
1665639755.6,286047004.0,N
1665639775.5,286047005.7,N
1665639795.3,286047004.9,N
1665639815.2,286047005.4,Y
1665639835.9,286047004.3,P
1665639855.7,286047003.7,P
1665639875.6,286047002.2,P
1665639895.4,286047001.6,N
1665639915.2,286047000.1,N
1665639935.1,286047003.8,N
1665639936.0,286047003.8,N
1665639955.8,286047001.9,N
1665639975.7,286047000.0,N
1665639995.5,286047000.2,N
1665640015.3,286046998.8,N
1665640035.2,286046998.5,N
1665640055.9,286046996.9,N
1665640075.7,286046999.6,N
1665640095.6,286046997.0,N
1665640115.4,286046998.3,N
1665640135.2,286046999.2,N
1665640155.1,286046997.5,N
1665640156.0,286046997.5,N
1665640175.8,286046999.2,N
1665640195.7,286046995.5,N
1665640215.5,286046993.8,N
1665640235.3,286046993.9,N
1665640255.2,286046996.0,N
1665640275.0,286046995.9,N
1665640275.9,286046995.9,N
1665640295.8,286046993.4,N
1665640315.6,286046993.3,N
1665640335.4,286046995.3,N
1665640355.3,286046997.9,N
1665640375.1,286047000.9,N
1665640395.8,286047000.3,N
1665640415.7,286046999.7,N
1665640435.5,286047002.8,N
1665640455.3,286047001.1,N
1665640475.2,286046999.1,N
1665640495.0,286046994.9,N
1665640495.9,286046994.9,N
1665640515.8,286046995.4,N
1665640535.6,286046992.0,Y
1665640555.4,286046993.7,P
1665640575.3,286046996.7,N
1665640595.1,286047001.8,N
1665640615.9,286047004.4,N
1665640635.7,286047005.1,N
1665640655.5,286047007.2,N
1665640675.4,286047006.7,N
1665640695.2,286047003.6,N
1665640715.0,286047007.3,N
1665640715.9,286047007.3,N
1665640735.8,286047005.5,N
1665640755.6,286047003.4,N
1665640775.5,286047002.6,N
1665640795.3,286047001.2,N
